| time (UTC) | temp F | wind direction | speed MPH | gust MPH | rain 1hr in | rain 24hr in | rain mn in | humidity % | barometer mb |
| 20260506015519 | 80 | 130 | 1.0 | 3.0 | 0.00 | 0.00 | 0.00 | 82 | 1004.8 |
| 20260506015016 | 80 | 157 | 1.0 | 1.0 | 0.00 | 0.00 | 0.00 | 82 | 1004.8 |
| 20260506014514 | 80 | 177 | 1.0 | 2.0 | 0.00 | 0.00 | 0.00 | 82 | 1004.6 |
| 20260506014009 | 80 | 172 | 1.0 | 3.0 | 0.00 | 0.00 | 0.00 | 81 | 1004.5 |
| 20260506013507 | 80 | 168 | 0.0 | 0.0 | 0.00 | 0.00 | 0.00 | 81 | 1004.8 |
| 20260506013004 | 81 | 164 | 0.0 | 1.0 | 0.00 | 0.00 | 0.00 | 81 | 1004.6 |
| 20260506012500 | 81 | 172 | 2.0 | 6.0 | 0.00 | 0.00 | 0.00 | 81 | 1004.5 |
| 20260506011957 | 81 | 171 | 2.0 | 3.0 | 0.00 | 0.00 | 0.00 | 80 | 1004.6 |
| 20260506011454 | 81 | 142 | 0.0 | 0.0 | 0.00 | 0.00 | 0.00 | 79 | 1004.6 |
| 20260506010951 | 82 | 149 | 0.0 | 0.0 | 0.00 | 0.00 | 0.00 | 79 | 1004.6 |
| 20260506010450 | 82 | 130 | 0.0 | 1.0 | 0.00 | 0.00 | 0.00 | 78 | 1004.7 |
| 20260506005945 | 82 | 151 | 2.0 | 5.0 | 0.00 | 0.00 | 0.00 | 78 | 1004.6 |
| 20260506005443 | 82 | 152 | 0.0 | 0.0 | 0.00 | 0.00 | 0.00 | 78 | 1004.6 |
| 20260506004938 | 82 | 157 | 0.0 | 1.0 | 0.00 | 0.00 | 0.00 | 77 | 1004.7 |
| 20260506004437 | 82 | 157 | 1.0 | 2.0 | 0.00 | 0.00 | 0.00 | 77 | 1004.6 |
| 20260506003932 | 82 | 169 | 2.0 | 3.0 | 0.00 | 0.00 | 0.00 | 77 | 1004.7 |
| 20260506003429 | 82 | 133 | 0.0 | 1.0 | 0.00 | 0.00 | 0.00 | 77 | 1004.6 |
| 20260506002926 | 82 | 186 | 4.0 | 5.0 | 0.00 | 0.00 | 0.00 | 77 | 1004.5 |
| 20260506002422 | 82 | 133 | 0.0 | 0.0 | 0.00 | 0.00 | 0.00 | 77 | 1004.6 |
| 20260506001917 | 82 | 160 | 3.0 | 5.0 | 0.00 | 0.00 | 0.00 | 77 | 1004.4 |
| 20260506001415 | 82 | 150 | 4.0 | 5.0 | 0.00 | 0.00 | 0.00 | 77 | 1004.6 |
| 20260506000912 | 83 | 133 | 4.0 | 5.0 | 0.00 | 0.00 | 0.00 | 77 | 1004.4 |
| 20260506000409 | 83 | 182 | 1.0 | 2.0 | 0.00 | 0.00 | 0.00 | 76 | 1004.3 |
| 20260505235906 | 83 | 176 | 3.0 | 3.0 | 0.00 | 0.00 | 0.00 | 76 | 1004.5 |
| 20260505235404 | 83 | 161 | 3.0 | 6.0 | 0.00 | 0.00 | 0.00 | 76 | 1004.4 |
| 20260505234900 | 83 | 130 | 1.0 | 2.0 | 0.00 | 0.00 | 0.00 | 76 | 1004.5 |
| 20260505234358 | 83 | 160 | 5.0 | 7.0 | 0.00 | 0.00 | 0.00 | 76 | 1004.4 |
| 20260505233854 | 83 | 177 | 4.0 | 5.0 | 0.00 | 0.00 | 0.00 | 75 | 1004.2 |
| 20260505233353 | 83 | 177 | 5.0 | 6.0 | 0.00 | 0.00 | 0.00 | 74 | 1004.3 |
| 20260505232850 | 83 | 167 | 1.0 | 2.0 | 0.00 | 0.00 | 0.00 | 74 | 1004.2 |
| 20260505232348 | 83 | 171 | 5.0 | 6.0 | 0.00 | 0.00 | 0.00 | 74 | 1004.3 |
| 20260505231844 | 83 | 189 | 1.0 | 3.0 | 0.00 | 0.00 | 0.00 | 74 | 1004.2 |
| 20260505231341 | 83 | 201 | 6.0 | 10.0 | 0.00 | 0.00 | 0.00 | 74 | 1004.3 |
| 20260505230840 | 83 | 170 | 5.0 | 6.0 | 0.00 | 0.00 | 0.00 | 74 | 1004.4 |
| 20260505230337 | 83 | 174 | 7.0 | 9.0 | 0.00 | 0.00 | 0.00 | 75 | 1004.0 |
| 20260505225833 | 83 | 199 | 3.0 | 7.0 | 0.00 | 0.00 | 0.00 | 74 | 1004.0 |
| 20260505225330 | 83 | 190 | 5.0 | 6.0 | 0.00 | 0.00 | 0.00 | 74 | 1004.1 |
| 20260505224825 | 83 | 164 | 5.0 | 6.0 | 0.00 | 0.00 | 0.00 | 74 | 1004.3 |
| 20260505224324 | 84 | 217 | 6.0 | 7.0 | 0.00 | 0.00 | 0.00 | 73 | 1004.2 |
| 20260505223820 | 84 | 153 | 4.0 | 6.0 | 0.00 | 0.00 | 0.00 | 73 | 1004.2 |
| 20260505223318 | 84 | 181 | 10.0 | 14.0 | 0.00 | 0.00 | 0.00 | 73 | 1003.9 |
| 20260505222813 | 84 | 178 | 4.0 | 6.0 | 0.00 | 0.00 | 0.00 | 73 | 1004.1 |
| 20260505222309 | 84 | 187 | 7.0 | 10.0 | 0.00 | 0.00 | 0.00 | 71 | 1004.2 |
| 20260505221807 | 84 | 176 | 5.0 | 6.0 | 0.00 | 0.00 | 0.00 | 72 | 1004.3 |
| 20260505221303 | 84 | 119 | 0.0 | 1.0 | 0.00 | 0.00 | 0.00 | 72 | 1004.1 |
| 20260505220800 | 84 | 199 | 5.0 | 6.0 | 0.00 | 0.00 | 0.00 | 72 | 1004.2 |
| 20260505220257 | 84 | 181 | 10.0 | 11.0 | 0.00 | 0.00 | 0.00 | 72 | 1004.3 |
| 20260505215755 | 84 | 164 | 12.0 | 14.0 | 0.00 | 0.00 | 0.00 | 72 | 1004.1 |
| 20260505215253 | 85 | 199 | 6.0 | 8.0 | 0.00 | 0.00 | 0.00 | 72 | 1004.5 |
| 20260505214750 | 84 | 124 | 2.0 | 6.0 | 0.00 | 0.00 | 0.00 | 74 | 1004.6 |
| 20260505214248 | 84 | 188 | 7.0 | 8.0 | 0.00 | 0.00 | 0.00 | 73 | 1004.8 |
| 20260505213745 | 85 | 172 | 7.0 | 10.0 | 0.00 | 0.00 | 0.00 | 71 | 1004.7 |
| 20260505213242 | 84 | 206 | 7.0 | 8.0 | 0.00 | 0.00 | 0.00 | 71 | 1004.8 |
| 20260505212738 | 83 | 172 | 6.0 | 7.0 | 0.00 | 0.00 | 0.00 | 72 | 1004.8 |
| 20260505212236 | 83 | 180 | 7.0 | 8.0 | 0.00 | 0.00 | 0.00 | 73 | 1005.0 |
| 20260505211732 | 83 | 168 | 5.0 | 6.0 | 0.00 | 0.00 | 0.00 | 72 | 1004.8 |
| 20260505211230 | 84 | 177 | 11.0 | 13.0 | 0.00 | 0.00 | 0.00 | 71 | 1005.1 |
| 20260505210726 | 83 | 187 | 4.0 | 6.0 | 0.00 | 0.00 | 0.00 | 73 | 1004.8 |
| 20260505210223 | 82 | 222 | 10.0 | 13.0 | 0.00 | 0.00 | 0.00 | 74 | 1004.9 |
| 20260505205720 | 83 | 200 | 6.0 | 9.0 | 0.00 | 0.00 | 0.00 | 74 | 1004.9 |
| 20260505205218 | 83 | 179 | 3.0 | 3.0 | 0.00 | 0.00 | 0.00 | 74 | 1004.9 |
| 20260505204714 | 82 | 186 | 5.0 | 6.0 | 0.00 | 0.00 | 0.00 | 75 | 1005.1 |
| 20260505204213 | 82 | 174 | 6.0 | 8.0 | 0.00 | 0.00 | 0.00 | 77 | 1005.4 |
| 20260505203710 | 82 | 194 | 5.0 | 14.0 | 0.00 | 0.00 | 0.00 | 76 | 1005.4 |
| 20260505203206 | 82 | 185 | 6.0 | 9.0 | 0.00 | 0.00 | 0.00 | 76 | 1005.6 |
| 20260505202702 | 82 | 199 | 6.0 | 7.0 | 0.00 | 0.00 | 0.00 | 76 | 1005.6 |
| 20260505202158 | 82 | 168 | 3.0 | 5.0 | 0.00 | 0.00 | 0.00 | 76 | 1005.6 |
| 20260505201655 | 81 | 197 | 9.0 | 13.0 | 0.00 | 0.00 | 0.00 | 76 | 1005.6 |
| 20260505201153 | 82 | 188 | 3.0 | 6.0 | 0.00 | 0.00 | 0.00 | 77 | 1005.7 |
| 20260505200651 | 81 | 204 | 9.0 | 10.0 | 0.00 | 0.00 | 0.00 | 77 | 1005.8 |
| 20260505200147 | 81 | 177 | 7.0 | 8.0 | 0.00 | 0.00 | 0.00 | 78 | 1005.8 |
| 20260505195643 | 81 | 200 | 2.0 | 3.0 | 0.00 | 0.00 | 0.00 | 77 | 1005.9 |
| 20260505195141 | 80 | 189 | 2.0 | 2.0 | 0.00 | 0.00 | 0.00 | 79 | 1006.2 |
| 20260505194638 | 80 | 173 | 4.0 | 7.0 | 0.00 | 0.00 | 0.00 | 79 | 1006.0 |
| 20260505194134 | 80 | 156 | 6.0 | 9.0 | 0.00 | 0.00 | 0.00 | 78 | 1006.2 |
| 20260505193630 | 80 | 210 | 5.0 | 6.0 | 0.00 | 0.00 | 0.00 | 78 | 1006.3 |
| 20260505193128 | 80 | 175 | 4.0 | 5.0 | 0.00 | 0.00 | 0.00 | 79 | 1006.2 |
| 20260505192626 | 80 | 204 | 7.0 | 8.0 | 0.00 | 0.00 | 0.00 | 79 | 1006.2 |
| 20260505192123 | 80 | 170 | 1.0 | 3.0 | 0.00 | 0.00 | 0.00 | 80 | 1006.3 |
| 20260505191622 | 80 | 189 | 7.0 | 8.0 | 0.00 | 0.00 | 0.00 | 79 | 1006.2 |
| 20260505191119 | 80 | 176 | 10.0 | 13.0 | 0.00 | 0.00 | 0.00 | 79 | 1006.4 |
| 20260505190615 | 80 | 200 | 6.0 | 8.0 | 0.00 | 0.00 | 0.00 | 79 | 1006.3 |
| 20260505190110 | 79 | 186 | 7.0 | 10.0 | 0.00 | 0.00 | 0.00 | 80 | 1006.4 |
| 20260505185607 | 80 | 182 | 5.0 | 6.0 | 0.00 | 0.00 | 0.00 | 80 | 1006.4 |
| 20260505185103 | 79 | 183 | 7.0 | 8.0 | 0.00 | 0.00 | 0.00 | 80 | 1006.5 |
| 20260505184600 | 79 | 168 | 3.0 | 6.0 | 0.00 | 0.00 | 0.00 | 81 | 1006.6 |
| 20260505184056 | 79 | 158 | 5.0 | 6.0 | 0.00 | 0.00 | 0.00 | 81 | 1006.6 |
| 20260505183553 | 79 | 213 | 7.0 | 11.0 | 0.00 | 0.00 | 0.00 | 81 | 1006.8 |
| 20260505183051 | 78 | 158 | 0.0 | 1.0 | 0.00 | 0.00 | 0.00 | 82 | 1006.8 |
| 20260505182547 | 78 | 164 | 5.0 | 6.0 | 0.00 | 0.00 | 0.00 | 82 | 1006.6 |
| 20260505182044 | 78 | 148 | 0.0 | 1.0 | 0.00 | 0.00 | 0.00 | 82 | 1006.9 |
| 20260505181540 | 78 | 167 | 2.0 | 3.0 | 0.00 | 0.00 | 0.00 | 83 | 1007.0 |
| 20260505181038 | 77 | 166 | 0.0 | 1.0 | 0.00 | 0.00 | 0.00 | 83 | 1006.8 |
| 20260505180533 | 77 | 175 | 4.0 | 5.0 | 0.00 | 0.00 | 0.00 | 83 | 1007.0 |
| 20260505180032 | 77 | 237 | 5.0 | 6.0 | 0.00 | 0.00 | 0.00 | 84 | 1007.1 |
| 20260505175526 | 77 | 171 | 3.0 | 5.0 | 0.00 | 0.00 | 0.00 | 84 | 1007.0 |
| 20260505175023 | 76 | 146 | 2.0 | 5.0 | 0.00 | 0.00 | 0.00 | 85 | 1007.1 |
| 20260505174520 | 76 | 161 | 1.0 | 1.0 | 0.00 | 0.00 | 0.00 | 85 | 1007.2 |
| 20260505174016 | 76 | 180 | 2.0 | 3.0 | 0.00 | 0.00 | 0.00 | 86 | 1007.0 |
| 20260505173513 | 76 | 193 | 6.0 | 7.0 | 0.00 | 0.00 | 0.00 | 85 | 1007.3 |
| 20260505173010 | 76 | 178 | 7.0 | 8.0 | 0.00 | 0.00 | 0.00 | 85 | 1007.1 |
| 20260505172508 | 76 | 184 | 5.0 | 6.0 | 0.00 | 0.00 | 0.00 | 85 | 1007.2 |
| 20260505172003 | 75 | 170 | 5.0 | 6.0 | 0.00 | 0.00 | 0.00 | 86 | 1007.2 |
| 20260505171459 | 75 | 156 | 1.0 | 2.0 | 0.00 | 0.00 | 0.00 | 87 | 1007.2 |
| 20260505170956 | 75 | 183 | 2.0 | 5.0 | 0.00 | 0.00 | 0.00 | 86 | 1007.3 |
| 20260505170453 | 75 | 194 | 9.0 | 14.0 | 0.00 | 0.00 | 0.00 | 86 | 1007.2 |
| 20260505165948 | 75 | 168 | 2.0 | 3.0 | 0.00 | 0.00 | 0.00 | 86 | 1007.2 |
| 20260505165444 | 75 | 211 | 5.0 | 6.0 | 0.00 | 0.00 | 0.00 | 87 | 1007.3 |
| 20260505164940 | 74 | 171 | 3.0 | 5.0 | 0.00 | 0.00 | 0.00 | 88 | 1007.5 |
| 20260505164437 | 74 | 179 | 9.0 | 10.0 | 0.00 | 0.00 | 0.00 | 88 | 1007.2 |
| 20260505163934 | 74 | 178 | 2.0 | 3.0 | 0.00 | 0.00 | 0.00 | 89 | 1007.3 |
| 20260505163433 | 74 | 192 | 6.0 | 7.0 | 0.00 | 0.00 | 0.00 | 89 | 1007.2 |
| 20260505162932 | 73 | 178 | 8.0 | 13.0 | 0.00 | 0.00 | 0.00 | 89 | 1007.2 |
| 20260505162427 | 74 | 193 | 6.0 | 8.0 | 0.00 | 0.00 | 0.00 | 89 | 1007.0 |
| 20260505161924 | 73 | 162 | 5.0 | 6.0 | 0.00 | 0.00 | 0.00 | 90 | 1007.2 |
| 20260505161421 | 73 | 164 | 5.0 | 6.0 | 0.00 | 0.00 | 0.00 | 90 | 1007.4 |
| 20260505160918 | 73 | 203 | 7.0 | 10.0 | 0.00 | 0.00 | 0.00 | 91 | 1007.3 |
| 20260505160416 | 72 | 178 | 5.0 | 6.0 | 0.00 | 0.00 | 0.00 | 91 | 1007.3 |
| 20260505153355 | 72 | 172 | 5.0 | 7.0 | 0.00 | 0.00 | 0.00 | 92 | 1007.3 |
| 20260505152852 | 72 | 200 | 8.0 | 9.0 | 0.00 | 0.00 | 0.00 | 92 | 1007.3 |
| 20260505152349 | 72 | 153 | 0.0 | 2.0 | 0.00 | 0.00 | 0.00 | 92 | 1007.3 |
| 20260505151843 | 72 | 205 | 5.0 | 6.0 | 0.00 | 0.00 | 0.00 | 92 | 1007.3 |
| 20260505151340 | 72 | 152 | 3.0 | 6.0 | 0.00 | 0.00 | 0.00 | 92 | 1007.0 |
| 20260505150837 | 72 | 194 | 5.0 | 7.0 | 0.00 | 0.00 | 0.00 | 92 | 1007.0 |
| 20260505150334 | 71 | 177 | 8.0 | 9.0 | 0.00 | 0.00 | 0.00 | 93 | 1007.0 |
| 20260505140258 | 71 | 176 | 5.0 | 7.0 | 0.00 | 0.00 | 0.00 | 93 | 1006.6 |
| 20260505130217 | 71 | 164 | 7.0 | 7.0 | 0.00 | 0.00 | 0.00 | 94 | 1006.2 |
| 20260505124707 | 70 | 206 | 5.0 | 7.0 | 0.00 | 0.00 | 0.00 | 94 | 1005.8 |
| 20260505124204 | 70 | 168 | 8.0 | 11.0 | 0.00 | 0.00 | 0.00 | 94 | 1005.8 |
| 20260505123659 | 70 | 187 | 3.0 | 6.0 | 0.00 | 0.00 | 0.00 | 94 | 1005.9 |
| 20260505123157 | 70 | 212 | 9.0 | 11.0 | 0.00 | 0.00 | 0.00 | 94 | 1005.8 |
| 20260505122653 | 70 | 194 | 4.0 | 6.0 | 0.00 | 0.00 | 0.00 | 93 | 1006.0 |
| 20260505122150 | 70 | 174 | 4.0 | 5.0 | 0.00 | 0.00 | 0.00 | 93 | 1005.8 |
| 20260505121647 | 70 | 186 | 5.0 | 7.0 | 0.00 | 0.00 | 0.00 | 93 | 1005.6 |
| 20260505121143 | 70 | 155 | 7.0 | 10.0 | 0.00 | 0.00 | 0.00 | 93 | 1005.7 |
| 20260505120639 | 71 | 168 | 6.0 | 9.0 | 0.00 | 0.00 | 0.00 | 93 | 1005.5 |
| 20260505120135 | 71 | 189 | 7.0 | 8.0 | 0.00 | 0.00 | 0.00 | 92 | 1005.4 |
| 20260505115630 | 71 | 201 | 6.0 | 7.0 | 0.00 | 0.00 | 0.00 | 92 | 1005.4 |
| 20260505115128 | 71 | 203 | 7.0 | 9.0 | 0.00 | 0.00 | 0.00 | 92 | 1005.3 |
| 20260505114624 | 71 | 154 | 11.0 | 14.0 | 0.00 | 0.00 | 0.00 | 92 | 1005.5 |
| 20260505114121 | 71 | 179 | 6.0 | 11.0 | 0.00 | 0.00 | 0.00 | 92 | 1005.3 |
| 20260505113617 | 71 | 172 | 10.0 | 14.0 | 0.00 | 0.00 | 0.00 | 92 | 1005.5 |
| 20260505113114 | 71 | 200 | 8.0 | 10.0 | 0.00 | 0.00 | 0.00 | 91 | 1005.5 |
| 20260505112610 | 71 | 174 | 9.0 | 10.0 | 0.00 | 0.00 | 0.00 | 91 | 1005.6 |
| 20260505112108 | 71 | 210 | 9.0 | 13.0 | 0.00 | 0.00 | 0.00 | 91 | 1005.4 |
| 20260505111602 | 70 | 139 | 3.0 | 3.0 | 0.00 | 0.00 | 0.00 | 91 | 1005.3 |
| 20260505111058 | 70 | 220 | 9.0 | 13.0 | 0.00 | 0.00 | 0.00 | 91 | 1005.7 |
| 20260505110555 | 70 | 169 | 3.0 | 3.0 | 0.00 | 0.00 | 0.00 | 92 | 1005.8 |
| 20260505102027 | 70 | 197 | 10.0 | 15.0 | 0.00 | 0.00 | 0.00 | 91 | 1005.7 |
| 20260505101526 | 70 | 155 | 2.0 | 5.0 | 0.00 | 0.00 | 0.00 | 91 | 1005.7 |
| 20260505101022 | 70 | 183 | 2.0 | 5.0 | 0.00 | 0.00 | 0.00 | 91 | 1005.9 |
| 20260505100519 | 70 | 210 | 10.0 | 13.0 | 0.00 | 0.00 | 0.00 | 91 | 1005.6 |
| 20260505100016 | 70 | 174 | 10.0 | 13.0 | 0.00 | 0.00 | 0.00 | 90 | 1005.9 |
| 20260505095512 | 70 | 166 | 7.0 | 10.0 | 0.00 | 0.00 | 0.00 | 90 | 1005.7 |
| 20260505095008 | 70 | 187 | 4.0 | 7.0 | 0.00 | 0.00 | 0.00 | 90 | 1005.5 |
| 20260505094505 | 70 | 192 | 6.0 | 9.0 | 0.00 | 0.00 | 0.00 | 90 | 1005.7 |
| 20260505094001 | 70 | 195 | 3.0 | 5.0 | 0.00 | 0.00 | 0.00 | 90 | 1005.8 |
| 20260505093457 | 70 | 175 | 8.0 | 10.0 | 0.00 | 0.00 | 0.00 | 90 | 1005.8 |
| 20260505092955 | 70 | 173 | 1.0 | 2.0 | 0.00 | 0.00 | 0.00 | 89 | 1005.8 |
| 20260505092452 | 70 | 196 | 8.0 | 10.0 | 0.00 | 0.00 | 0.00 | 90 | 1005.8 |
| 20260505091950 | 70 | 178 | 3.0 | 3.0 | 0.00 | 0.00 | 0.00 | 89 | 1005.8 |
| 20260505091447 | 70 | 201 | 7.0 | 8.0 | 0.00 | 0.00 | 0.00 | 89 | 1005.6 |
| 20260505090945 | 70 | 156 | 4.0 | 5.0 | 0.00 | 0.00 | 0.00 | 89 | 1005.8 |
| 20260505090443 | 70 | 145 | 5.0 | 6.0 | 0.00 | 0.00 | 0.00 | 89 | 1006.0 |
| 20260505085940 | 70 | 174 | 5.0 | 8.0 | 0.00 | 0.00 | 0.00 | 89 | 1005.9 |
| 20260505085438 | 70 | 198 | 11.0 | 11.0 | 0.00 | 0.00 | 0.00 | 89 | 1005.9 |
| 20260505084936 | 70 | 200 | 7.0 | 8.0 | 0.00 | 0.00 | 0.00 | 89 | 1005.8 |
| 20260505084434 | 70 | 190 | 8.0 | 10.0 | 0.00 | 0.00 | 0.00 | 89 | 1006.0 |
| 20260505083932 | 70 | 197 | 7.0 | 8.0 | 0.00 | 0.00 | 0.00 | 89 | 1005.8 |
| 20260505083429 | 70 | 174 | 3.0 | 6.0 | 0.00 | 0.00 | 0.00 | 90 | 1006.1 |
| 20260505082925 | 70 | 153 | 3.0 | 6.0 | 0.00 | 0.00 | 0.00 | 90 | 1006.2 |
| 20260505082421 | 70 | 187 | 14.0 | 16.0 | 0.00 | 0.00 | 0.00 | 90 | 1006.3 |
| 20260505081918 | 70 | 198 | 4.0 | 7.0 | 0.00 | 0.00 | 0.00 | 90 | 1006.1 |
| 20260505081415 | 70 | 198 | 10.0 | 11.0 | 0.00 | 0.00 | 0.00 | 90 | 1006.3 |
| 20260505080911 | 70 | 190 | 6.0 | 7.0 | 0.00 | 0.00 | 0.00 | 90 | 1006.5 |
| 20260505080408 | 70 | 197 | 7.0 | 7.0 | 0.00 | 0.00 | 0.00 | 90 | 1006.4 |
| 20260505075903 | 70 | 191 | 3.0 | 6.0 | 0.00 | 0.00 | 0.00 | 90 | 1006.4 |
| 20260505075400 | 70 | 212 | 9.0 | 11.0 | 0.00 | 0.00 | 0.00 | 90 | 1006.5 |
| 20260505074857 | 70 | 202 | 8.0 | 13.0 | 0.00 | 0.00 | 0.00 | 90 | 1006.7 |
| 20260505074349 | 70 | 195 | 5.0 | 6.0 | 0.00 | 0.00 | 0.00 | 90 | 1006.7 |
| 20260505073846 | 70 | 205 | 7.0 | 10.0 | 0.00 | 0.00 | 0.00 | 90 | 1006.7 |
| 20260505073344 | 70 | 196 | 10.0 | 13.0 | 0.00 | 0.00 | 0.00 | 89 | 1006.9 |
| 20260505072840 | 70 | 178 | 12.0 | 15.0 | 0.00 | 0.00 | 0.00 | 89 | 1006.8 |
| 20260505072336 | 71 | 191 | 7.0 | 10.0 | 0.00 | 0.00 | 0.00 | 89 | 1006.7 |
| 20260505071833 | 71 | 208 | 10.0 | 13.0 | 0.00 | 0.00 | 0.00 | 89 | 1006.9 |
| 20260505071329 | 71 | 163 | 11.0 | 14.0 | 0.00 | 0.00 | 0.00 | 89 | 1007.0 |
| 20260505070828 | 71 | 191 | 5.0 | 7.0 | 0.00 | 0.00 | 0.00 | 89 | 1007.0 |
| 20260505070323 | 71 | 196 | 11.0 | 16.0 | 0.00 | 0.00 | 0.00 | 89 | 1007.2 |
| 20260505065819 | 71 | 183 | 11.0 | 14.0 | 0.00 | 0.00 | 0.00 | 89 | 1007.2 |
| 20260505065316 | 71 | 184 | 3.0 | 5.0 | 0.00 | 0.00 | 0.00 | 89 | 1007.3 |
| 20260505064813 | 71 | 167 | 2.0 | 3.0 | 0.00 | 0.00 | 0.00 | 89 | 1007.0 |
| 20260505064310 | 71 | 183 | 3.0 | 5.0 | 0.00 | 0.00 | 0.00 | 89 | 1007.2 |
| 20260505063808 | 71 | 185 | 9.0 | 15.0 | 0.00 | 0.00 | 0.00 | 89 | 1007.2 |
| 20260505063304 | 71 | 199 | 5.0 | 7.0 | 0.00 | 0.00 | 0.00 | 89 | 1007.4 |
| 20260505062801 | 71 | 185 | 7.0 | 13.0 | 0.00 | 0.00 | 0.00 | 89 | 1007.6 |
| 20260505062258 | 71 | 203 | 2.0 | 8.0 | 0.00 | 0.00 | 0.00 | 89 | 1007.7 |
| 20260505061755 | 71 | 161 | 14.0 | 17.0 | 0.00 | 0.00 | 0.00 | 88 | 1007.6 |
| 20260505061253 | 71 | 186 | 5.0 | 6.0 | 0.00 | 0.00 | 0.00 | 88 | 1007.7 |
| 20260505060750 | 71 | 192 | 6.0 | 8.0 | 0.00 | 0.00 | 0.00 | 88 | 1007.5 |
| 20260505060247 | 71 | 216 | 9.0 | 15.0 | 0.00 | 0.00 | 0.00 | 88 | 1007.6 |
| 20260505055742 | 71 | 201 | 7.0 | 10.0 | 0.00 | 0.00 | 0.00 | 88 | 1007.7 |
| 20260505055239 | 71 | 175 | 7.0 | 9.0 | 0.00 | 0.00 | 0.00 | 88 | 1007.5 |
| 20260505054736 | 71 | 188 | 11.0 | 16.0 | 0.00 | 0.00 | 0.00 | 88 | 1007.8 |
| 20260505054234 | 71 | 192 | 2.0 | 3.0 | 0.00 | 0.00 | 0.00 | 88 | 1007.7 |
| 20260505053732 | 71 | 187 | 12.0 | 14.0 | 0.00 | 0.00 | 0.00 | 88 | 1007.8 |
| 20260505053227 | 71 | 162 | 8.0 | 13.0 | 0.00 | 0.00 | 0.00 | 88 | 1007.8 |
| 20260505052725 | 71 | 206 | 12.0 | 17.0 | 0.00 | 0.00 | 0.00 | 88 | 1007.6 |
| 20260505052221 | 71 | 206 | 11.0 | 13.0 | 0.00 | 0.00 | 0.00 | 88 | 1007.7 |
| 20260505051719 | 71 | 171 | 7.0 | 8.0 | 0.00 | 0.00 | 0.00 | 87 | 1007.5 |
| 20260505051217 | 71 | 186 | 6.0 | 8.0 | 0.00 | 0.00 | 0.00 | 87 | 1007.8 |
| 20260505050714 | 71 | 214 | 5.0 | 11.0 | 0.00 | 0.00 | 0.00 | 87 | 1007.5 |
| 20260505050213 | 71 | 139 | 6.0 | 9.0 | 0.00 | 0.00 | 0.00 | 87 | 1007.7 |
| 20260505041643 | 73 | 189 | 6.0 | 7.0 | 0.00 | 0.00 | 0.00 | 85 | 1007.4 |
| 20260505041140 | 73 | 151 | 4.0 | 5.0 | 0.00 | 0.00 | 0.00 | 84 | 1007.5 |
| 20260505040637 | 73 | 203 | 9.0 | 10.0 | 0.00 | 0.00 | 0.00 | 84 | 1007.6 |
| 20260505040134 | 73 | 165 | 8.0 | 10.0 | 0.00 | 0.00 | 0.00 | 84 | 1007.6 |
| 20260505035630 | 73 | 179 | 9.0 | 10.0 | 0.00 | 0.00 | 0.00 | 83 | 1007.7 |
| 20260505035127 | 73 | 209 | 7.0 | 9.0 | 0.00 | 0.00 | 0.00 | 83 | 1007.8 |
| 20260505034624 | 73 | 204 | 9.0 | 11.0 | 0.00 | 0.00 | 0.00 | 83 | 1008.0 |
| 20260505034121 | 74 | 174 | 6.0 | 7.0 | 0.00 | 0.00 | 0.00 | 82 | 1007.5 |
| 20260505033617 | 74 | 187 | 11.0 | 13.0 | 0.00 | 0.00 | 0.00 | 82 | 1007.6 |
| 20260505033116 | 74 | 197 | 10.0 | 13.0 | 0.00 | 0.00 | 0.00 | 82 | 1007.5 |
| 20260505032613 | 74 | 219 | 3.0 | 5.0 | 0.00 | 0.00 | 0.00 | 82 | 1007.6 |
| 20260505032109 | 74 | 197 | 9.0 | 14.0 | 0.00 | 0.00 | 0.00 | 82 | 1007.5 |
| 20260505031607 | 74 | 198 | 9.0 | 15.0 | 0.00 | 0.00 | 0.00 | 81 | 1007.5 |
| 20260505031103 | 74 | 189 | 7.0 | 10.0 | 0.00 | 0.00 | 0.00 | 81 | 1007.6 |
| 20260505030600 | 75 | 171 | 6.0 | 8.0 | 0.00 | 0.00 | 0.00 | 81 | 1007.3 |
| 20260505030056 | 75 | 197 | 6.0 | 8.0 | 0.00 | 0.00 | 0.00 | 80 | 1007.6 |
| 20260505025551 | 75 | 189 | 6.0 | 8.0 | 0.00 | 0.00 | 0.00 | 80 | 1007.7 |
| 20260505025051 | 75 | 159 | 7.0 | 8.0 | 0.00 | 0.00 | 0.00 | 80 | 1007.5 |
| 20260505024547 | 75 | 177 | 4.0 | 6.0 | 0.00 | 0.00 | 0.00 | 80 | 1007.7 |
| 20260505024045 | 75 | 168 | 5.0 | 7.0 | 0.00 | 0.00 | 0.00 | 79 | 1007.6 |
| 20260505023542 | 75 | 189 | 2.0 | 2.0 | 0.00 | 0.00 | 0.00 | 79 | 1007.6 |
| 20260505023039 | 75 | 184 | 5.0 | 8.0 | 0.00 | 0.00 | 0.00 | 79 | 1007.4 |
| 20260505022537 | 75 | 148 | 4.0 | 6.0 | 0.00 | 0.00 | 0.00 | 78 | 1007.4 |
| 20260505022034 | 75 | 141 | 7.0 | 8.0 | 0.00 | 0.00 | 0.00 | 78 | 1007.3 |
| 20260505021530 | 76 | 185 | 5.0 | 6.0 | 0.00 | 0.00 | 0.00 | 78 | 1007.4 |
| 20260505021027 | 76 | 181 | 8.0 | 9.0 | 0.00 | 0.00 | 0.00 | 77 | 1007.4 |
| 20260505020526 | 76 | 195 | 9.0 | 13.0 | 0.00 | 0.00 | 0.00 | 77 | 1007.3 |
| 20260505020024 | 76 | 166 | 1.0 | 2.0 | 0.00 | 0.00 | 0.00 | 76 | 1007.4 |